[[{"header":{"parameterUnit":"m.s-1","parameterCategory":1,"la1":30.2991,"la2":30.254,"lo1":-89.0895,"lo2":-89.0444,"dy":0.0017,"dx":0.0017,"nx":28,"ny":28,"refTime":"2023-07-26T09:00:00:Z","depth":0,"parameterNumber":2,"parameterNumberName":"U-component_of_WINDS"},"data":[0,0,0,0,0,0,0,0,0,0,0,0,0,0,0,0,0,0,0,0,0,0,0,0,0,0,0,0,0,0,0,0,0,0,0,0,0,0,0,0,0,0,0,0,0,0,0,0,0,0,0,0,0,0,0,0,0,0,-0.6435,-0.6434,0,-0.6362,-0.6362,-0.6361,-0.6326,-0.6326,-0.6326,-0.6326,-0.6251,-0.6249,-0.6247,0,0,0,0,0,0,0,0,0,0,0,0,0,-0.6544,-0.6543,-0.6435,-0.6434,-0.6433,-0.6362,-0.6361,-0.636,-0.6326,-0.6326,-0.6326,-0.6326,-0.6251,-0.6249,-0.6247,0,0,0,0,0,0,0,0,0,0,0,0,0,-0.6487,-0.6542,-0.6435,-0.6407,-0.6404,-0.6363,-0.6361,-0.636,-0.6326,-0.6326,-0.6326,-0.6326,-0.6252,-0.6249,-0.6246,-0.6227,0,0,-0.6237,-0.6236,0,0,0,0,0,0,0,0,-0.649,-0.6483,-0.6412,-0.6409,-0.6405,-0.6353,-0.6373,-0.6315,-0.6326,-0.6355,-0.6326,-0.6326,-0.6285,-0.6279,-0.6265,-0.6223,-0.622,-0.6237,-0.6235,-0.6234,-0.6233,0,0,0,0,0,0,0,-0.6494,-0.6486,-0.6406,-0.6411,-0.6407,-0.6399,-0.6391,-0.6362,-0.6321,-0.6353,-0.635,-0.6342,-0.6283,-0.6268,-0.6263,-0.6219,-0.6237,-0.6234,-0.6232,-0.6231,-0.616,-0.616,0,0,0,0,0,0,-0.6503,-0.6489,-0.6408,-0.6404,-0.6449,-0.6397,-0.6388,-0.637,-0.6321,-0.6314,-0.6342,-0.6341,-0.6273,-0.6267,-0.626,-0.6236,-0.6234,-0.6231,-0.6229,-0.616,-0.616,-0.616,0,0,0,0,0,0,-0.6505,-0.6496,-0.6411,-0.6446,-0.6435,-0.6395,-0.6375,-0.6368,-0.6354,-0.6313,-0.6305,-0.6335,-0.6273,-0.6265,-0.6236,-0.6233,-0.6229,-0.6227,-0.616,-0.616,-0.616,-0.6186,0,0,0,0,0,0,-0.6508,-0.6497,-0.6489,-0.6446,-0.6433,-0.6388,-0.6375,-0.6367,-0.6349,-0.6346,-0.6304,-0.6297,-0.6273,-0.6241,-0.6233,-0.6228,-0.6224,-0.616,-0.616,-0.616,-0.6185,-0.6187,-0.6188,0,0,0,0,0,-0.6513,-0.6498,-0.6488,-0.6479,-0.6422,-0.6388,-0.638,-0.6353,-0.6349,-0.634,-0.6315,-0.6298,-0.6235,-0.6238,-0.6229,-0.6224,-0.616,-0.616,-0.616,-0.6184,-0.6186,-0.6188,0,0,0,0,0,0,-0.6541,-0.6492,-0.6481,-0.6452,-0.6424,-0.6382,-0.637,-0.6355,-0.6328,-0.6327,-0.6294,-0.6284,-0.6259,-0.6238,-0.6243,-0.6204,-0.6196,-0.6194,-0.6218,-0.6219,-0.6221,-0.6226,-0.6222,0,0,0,0,0,-0.6544,-0.652,-0.6479,-0.6458,-0.6444,-0.641,-0.6394,-0.6376,-0.6346,-0.6333,-0.6305,-0.6277,-0.6251,-0.6234,-0.6207,-0.6182,-0.6173,-0.6174,-0.6176,-0.6177,-0.6176,-0.6163,-0.6163,-0.6159,-0.6159,-0.6159,0,0,-0.6549,-0.652,-0.6507,-0.6463,-0.6439,-0.6416,-0.64,-0.6376,-0.6358,-0.633,-0.6301,-0.628,-0.6246,-0.622,-0.6207,-0.6202,-0.6175,-0.6177,-0.6178,-0.6176,-0.6163,-0.6163,-0.6164,-0.6159,-0.6159,-0.6159,0,0,-0.6548,-0.6523,-0.6503,-0.648,-0.6445,-0.6423,-0.6418,-0.6379,-0.6364,-0.6335,-0.6313,-0.6293,-0.6247,-0.6225,-0.6207,-0.6201,-0.6185,-0.6193,-0.62,-0.6188,-0.6188,-0.6188,-0.6187,-0.6187,-0.6192,-0.6192,-0.6192,0,-0.6559,-0.6523,-0.6495,-0.6472,-0.6454,-0.6428,-0.6409,-0.6388,-0.6346,-0.6334,-0.633,-0.6274,-0.6249,-0.6218,-0.6217,-0.6204,-0.6198,-0.6197,-0.6191,-0.619,-0.619,-0.6189,-0.6188,-0.6193,-0.6193,-0.6193,-0.6192,0,-0.6539,-0.6515,-0.6503,-0.6464,-0.6445,-0.6424,-0.6394,-0.6378,-0.6362,-0.634,-0.6312,-0.6282,-0.625,-0.6241,-0.6225,-0.6209,-0.6207,-0.6197,-0.6189,-0.6192,-0.619,-0.6189,-0.6195,-0.6194,-0.6194,-0.6194,0,0,-0.6551,-0.6499,-0.6495,-0.6478,-0.6439,-0.642,-0.6399,-0.6368,-0.6355,-0.6328,-0.631,-0.6274,-0.6265,-0.6246,-0.6227,-0.6216,-0.6215,-0.6208,-0.6206,-0.6211,-0.6197,-0.6204,-0.6204,-0.6204,-0.6204,-0.6204,-0.62,0,-0.6544,-0.6505,-0.6481,-0.6451,-0.6429,-0.6406,-0.6388,-0.6362,-0.6342,-0.6321,-0.6299,-0.6274,-0.6264,-0.6253,-0.6241,-0.6217,-0.6211,-0.6217,-0.6188,-0.6187,-0.6197,-0.6203,-0.621,-0.6208,-0.6199,-0.6198,-0.6198,0,-0.6531,-0.6505,-0.6474,-0.6439,-0.6429,-0.6413,-0.6384,-0.6364,-0.6336,-0.6322,-0.6302,-0.6283,-0.6261,-0.6255,-0.6225,-0.623,-0.6217,-0.6203,-0.6203,-0.6199,-0.6193,-0.6199,-0.6206,-0.6206,-0.6196,-0.6197,-0.6197,0,-0.6544,-0.6502,-0.6478,-0.6464,-0.6423,-0.6412,-0.6395,-0.6366,-0.635,-0.6325,-0.6314,-0.6287,-0.6272,-0.6252,-0.6227,-0.6225,-0.62,-0.6191,-0.6188,-0.6189,-0.6183,-0.6184,-0.6188,-0.6175,-0.6175,-0.6175,-0.6175,0,-0.6539,-0.6521,-0.6484,-0.6469,-0.6449,-0.6422,-0.6403,-0.6383,-0.6359,-0.6341,-0.6319,-0.6302,-0.627,-0.625,-0.6231,-0.621,-0.6203,-0.6192,-0.6187,-0.6194,-0.6195,-0.6184,-0.6184,-0.6175,-0.6175,-0.6175,-0.6175,0,-0.6549,-0.6524,-0.6497,-0.6461,-0.6451,-0.6438,-0.6408,-0.6393,-0.6373,-0.6351,-0.6344,-0.6312,-0.6288,-0.6262,-0.6228,-0.6215,-0.6195,-0.6188,-0.6205,-0.6202,-0.6201,-0.6202,-0.6198,-0.6197,-0.6185,-0.6185,-0.6185,0,-0.6548,-0.6534,-0.6497,-0.6484,-0.6467,-0.6445,-0.6429,-0.6403,-0.6387,-0.6355,-0.6345,-0.6319,-0.6297,-0.626,-0.6234,-0.6209,-0.6201,-0.6202,-0.6197,-0.6205,-0.6202,-0.6203,-0.6202,-0.6203,-0.6203,-0.6204,-0.6204,0,-0.6548,-0.6537,-0.6515,-0.6489,-0.6471,-0.6449,-0.6426,-0.6416,-0.6386,-0.6369,-0.6345,-0.6328,-0.6295,-0.627,-0.6243,-0.6225,-0.621,-0.6206,-0.6204,-0.6211,-0.6222,-0.6217,-0.6209,-0.6206,-0.6206,-0.6205,-0.6205,-0.6205,-0.6553,-0.654,-0.6513,-0.6489,-0.647,-0.645,-0.6435,-0.6414,-0.6393,-0.6365,-0.6351,-0.6327,-0.6301,-0.6262,-0.6245,-0.6227,-0.6222,-0.6219,-0.6218,-0.6218,-0.622,-0.6225,-0.6221,-0.6221,-0.6221,-0.6221,-0.6221,0,-0.6553,-0.6535,-0.6514,-0.6483,-0.6466,-0.6454,-0.6429,-0.6415,-0.6394,-0.6371,-0.6351,-0.6324,-0.63,-0.6274,-0.6249,-0.6239,-0.6232,-0.6234,-0.6234,-0.6231,-0.6225,-0.623,-0.624,-0.624,-0.624,-0.624,-0.624,-0.624,-0.6551,-0.6529,-0.6515,-0.6484,-0.6466,-0.6442,-0.643,-0.6412,-0.6393,-0.6364,-0.6345,-0.6328,-0.6305,-0.6279,-0.6257,-0.625,-0.6242,-0.6246,-0.6237,-0.6232,-0.6231,-0.6229,-0.6233,-0.6245,-0.6245,-0.6244,-0.6244,-0.6244]},{"header":{"parameterUnit":"m.s-1","parameterCategory":1,"la1":30.2991,"la2":30.254,"lo1":-89.0895,"lo2":-89.0444,"dy":0.0017,"dx":0.0017,"nx":28,"ny":28,"refTime":"2023-07-26T09:00:00:Z","depth":0,"parameterNumber":3,"parameterNumberName":"V-component_of_WINDS"},"data":[0,0,0,0,0,0,0,0,0,0,0,0,0,0,0,0,0,0,0,0,0,0,0,0,0,0,0,0,0,0,0,0,0,0,0,0,0,0,0,0,0,0,0,0,0,0,0,0,0,0,0,0,0,0,0,0,0,0,3.671,3.6709,0,3.6656,3.6655,3.6655,3.6679,3.668,3.6682,3.6683,3.662,3.6617,3.6614,0,0,0,0,0,0,0,0,0,0,0,0,0,3.6825,3.6823,3.671,3.6709,3.6708,3.6656,3.6655,3.6655,3.6679,3.6681,3.6682,3.6684,3.6621,3.6617,3.6614,0,0,0,0,0,0,0,0,0,0,0,0,0,3.6773,3.6822,3.671,3.6714,3.6714,3.6656,3.6655,3.6654,3.6679,3.6681,3.6683,3.6685,3.6622,3.6618,3.6613,3.6545,0,0,3.66,3.6598,0,0,0,0,0,0,0,0,3.6776,3.6769,3.6714,3.6714,3.6714,3.6677,3.6673,3.6617,3.6678,3.6692,3.6683,3.6686,3.6636,3.6631,3.6616,3.6542,3.6539,3.6599,3.6596,3.6595,3.6593,0,0,0,0,0,0,0,3.678,3.6772,3.6688,3.6713,3.6713,3.6717,3.6711,3.6662,3.6653,3.6691,3.6692,3.6686,3.6637,3.662,3.6615,3.6538,3.6599,3.6595,3.6593,3.6591,3.6404,3.6402,0,0,0,0,0,0,3.6785,3.6774,3.669,3.6687,3.6751,3.6713,3.6707,3.6686,3.6654,3.6651,3.6685,3.6688,3.6627,3.662,3.6613,3.6529,3.6595,3.659,3.6588,3.6406,3.6403,3.6401,0,0,0,0,0,0,3.6787,3.6777,3.6692,3.6731,3.6721,3.6709,3.6685,3.6684,3.6668,3.6649,3.6647,3.667,3.6628,3.6619,3.6562,3.6528,3.6588,3.6584,3.6409,3.6405,3.6402,3.6363,0,0,0,0,0,0,3.679,3.6778,3.6753,3.673,3.6718,3.6644,3.6683,3.6682,3.6661,3.6665,3.6635,3.6632,3.6629,3.6568,3.6557,3.6523,3.6581,3.6412,3.6407,3.6403,3.6367,3.6359,3.6351,0,0,0,0,0,3.6794,3.6743,3.6752,3.6742,3.6688,3.6642,3.6635,3.6636,3.6658,3.6633,3.662,3.6633,3.6534,3.6562,3.655,3.6513,3.6414,3.6408,3.6403,3.6371,3.636,3.6352,0,0,0,0,0,0,3.6759,3.674,3.675,3.669,3.6668,3.6647,3.6614,3.6625,3.6593,3.6597,3.6597,3.659,3.653,3.6516,3.6549,3.6445,3.6477,3.6469,3.6456,3.6446,3.6438,3.6442,3.6577,0,0,0,0,0,3.6745,3.6712,3.6696,3.6645,3.6633,3.6626,3.6606,3.6608,3.6584,3.6574,3.6558,3.6532,3.6494,3.647,3.6435,3.6366,3.6359,3.6335,3.6327,3.632,3.6313,3.6274,3.6263,3.6384,3.6384,3.6384,0,0,3.6714,3.67,3.6678,3.6637,3.662,3.6584,3.6617,3.6577,3.6549,3.6567,3.6513,3.65,3.647,3.6407,3.6378,3.6393,3.6278,3.6314,3.6309,3.6305,3.6267,3.6256,3.6246,3.638,3.6381,3.6381,0,0,3.6639,3.6626,3.6581,3.6564,3.654,3.6535,3.6524,3.6502,3.6494,3.6441,3.6453,3.6418,3.6355,3.6333,3.6314,3.6231,3.6241,3.622,3.6177,3.6139,3.613,3.6121,3.609,3.6079,3.6213,3.6213,3.6213,0,3.6603,3.6551,3.6556,3.6515,3.6496,3.6514,3.6467,3.6449,3.6413,3.6398,3.6416,3.6337,3.6319,3.625,3.623,3.6214,3.62,3.6222,3.6131,3.6123,3.6115,3.6085,3.6073,3.621,3.621,3.6211,3.6211,0,3.6507,3.647,3.6437,3.6404,3.6381,3.6338,3.6334,3.6309,3.6314,3.6307,3.625,3.6229,3.619,3.6174,3.6177,3.6105,3.6115,3.6133,3.6164,3.6101,3.6072,3.6061,3.6207,3.6208,3.6208,3.6209,0,0,3.6406,3.6379,3.6366,3.6351,3.6326,3.6296,3.6252,3.6217,3.6195,3.6169,3.6131,3.6077,3.6093,3.6071,3.6072,3.6039,3.5973,3.606,3.6059,3.6043,3.589,3.5876,3.5863,3.598,3.5978,3.5976,3.5892,0,3.6328,3.6254,3.6258,3.6188,3.6153,3.617,3.6131,3.611,3.6102,3.6069,3.6059,3.6021,3.6046,3.6033,3.6001,3.5988,3.5942,3.5994,3.5941,3.5939,3.5947,3.5849,3.5834,3.5755,3.5881,3.588,3.5878,0,3.6226,3.62,3.6128,3.6107,3.6093,3.6058,3.6026,3.5995,3.597,3.5967,3.5943,3.5949,3.5902,3.5937,3.587,3.5906,3.5885,3.5875,3.5872,3.5865,3.5904,3.5837,3.5731,3.5718,3.5861,3.5863,3.5864,0,3.6158,3.6105,3.6054,3.6041,3.6017,3.5992,3.598,3.5958,3.5936,3.5906,3.5892,3.5856,3.5836,3.5807,3.5802,3.5829,3.5735,3.577,3.5728,3.5728,3.5706,3.5707,3.5592,3.5696,3.5696,3.5696,3.5696,0,3.6069,3.6023,3.6023,3.5992,3.594,3.5944,3.5892,3.5882,3.5863,3.5828,3.5839,3.5805,3.5803,3.5767,3.5763,3.5708,3.5699,3.5692,3.5691,3.569,3.5691,3.5675,3.5679,3.5693,3.5694,3.5694,3.5695,0,3.5983,3.5982,3.5928,3.591,3.5904,3.5867,3.585,3.5818,3.5813,3.5768,3.5757,3.5747,3.5706,3.5699,3.565,3.5647,3.558,3.5586,3.5589,3.5589,3.5548,3.5551,3.5417,3.5398,3.5515,3.5514,3.5513,0,3.5926,3.5891,3.5871,3.585,3.5837,3.5802,3.5781,3.5783,3.576,3.573,3.5701,3.5662,3.5631,3.5563,3.5549,3.5511,3.5515,3.5471,3.5509,3.5509,3.5512,3.5513,3.5509,3.5462,3.5461,3.546,3.5459,0,3.5823,3.5825,3.5795,3.5764,3.5739,3.5715,3.5691,3.5672,3.5671,3.5644,3.5604,3.558,3.5531,3.5491,3.5453,3.5438,3.5447,3.5448,3.5436,3.5433,3.5436,3.5432,3.5567,3.545,3.5451,3.5452,3.5452,3.5453,3.5748,3.5718,3.5699,3.5665,3.5649,3.5627,3.5597,3.5588,3.5556,3.5518,3.5521,3.5476,3.5451,3.5402,3.5384,3.5347,3.5361,3.5344,3.534,3.5335,3.533,3.5444,3.5341,3.5341,3.5341,3.5341,3.5341,0,3.5645,3.5634,3.5603,3.5572,3.5544,3.556,3.5535,3.551,3.5471,3.5449,3.5419,3.5371,3.5333,3.5316,3.5278,3.5251,3.5254,3.5241,3.5241,3.5237,3.5321,3.5334,3.5239,3.5239,3.5239,3.5239,3.5239,3.5239,3.5588,3.5538,3.5537,3.5477,3.5466,3.5425,3.5409,3.5388,3.537,3.5318,3.5287,3.5278,3.5257,3.5218,3.5182,3.5178,3.5162,3.5146,3.5144,3.5221,3.5232,3.5241,3.5254,3.5143,3.5143,3.5063,3.5062,3.5062]}]]